This is the latest recevied weather packets stored in our database for station/object TONGUE. If no packets are shown the sender has not sent any weather packets the latest 10 day(s).
| Time | Temp. | Humidity | Pressure | Rain* | Wind** | Luminosity | Snow |
|---|---|---|---|---|---|---|---|
| 1787971803 | 16.67° C | 83% | 0 hPa | - | - | - | - |
| 1787971203 | 16.67° C | 83% | 0 hPa | - | - | - | - |
| 1787970604 | 16.67° C | 83% | 0 hPa | - | - | - | - |
| 1787970002 | 16.67° C | 83% | 0 hPa | - | - | - | - |
| 1787969403 | 16.67° C | 81% | 0 hPa | - | - | - | - |
| 1787968803 | 17.22° C | 82% | 0 hPa | - | - | - | - |
| 1787968203 | 17.22° C | 80% | 0 hPa | - | - | - | - |
| 1787967604 | 17.22° C | 78% | 0 hPa | - | - | - | - |
| 1787967003 | 17.78° C | 76% | 0 hPa | - | - | - | - |
| 1787966403 | 18.33° C | 75% | 0 hPa | - | - | - | - |
| 1787965803 | 17.78° C | 77% | 0 hPa | - | - | - | - |
| 1787965204 | 18.33° C | 75% | 0 hPa | - | - | - | - |
| 1787964603 | 17.78° C | 70% | 0 hPa | - | - | - | - |
| 1787964003 | 18.33° C | 75% | 0 hPa | - | - | - | - |
| 1787963403 | 18.33° C | 75% | 0 hPa | - | - | - | - |
| 1787962803 | 18.33° C | 71% | 0 hPa | - | - | - | - |
| 1787962203 | 18.33° C | 72% | 0 hPa | - | - | - | - |
| 1787961604 | 18.89° C | 71% | 0 hPa | - | - | - | - |
| 1787961003 | 18.33° C | 72% | 0 hPa | - | - | - | - |
| 1787960403 | 18.89° C | 71% | 0 hPa | - | - | - | - |
| 1787959802 | 18.89° C | 70% | 0 hPa | - | - | - | - |
| 1787959203 | 18.33° C | 74% | 0 hPa | - | - | - | - |
| 1787958603 | 18.89° C | 77% | 0 hPa | - | - | - | - |
| 1787957403 | 19.44° C | 74% | 0 hPa | - | - | - | - |
| 1787956803 | 18.89° C | 75% | 0 hPa | - | - | - | - |
* Rain since midnight (hover to see other rain measurements)
** Current wind speed in m/s (hover to see current wind gust speed)